CZ-6A DEB

Satellite information

Favourite Embed

Satellite Type and Status

DEBRISIN ORBIT

Key statistics

Satellite CZ-6A DEB at a glance.

Uptime

438

Days in orbit

Revolutions

≈ 14.3

Per day

Orbit

LEO

Low Earth Orbit

Inclination

88.7

Latest

Satellite identification and parameters

Extended collection of information and parameters for CZ-6A DEB.

Object identification

Identified? True

Debris? True

Object name: CZ-6A DEB

International designator: 2024-140XF

Object number (NORAD): 61390

Object ID (CCSDS): 61390

Country: PEOPLES REPUBLIC OF CHINA (PRC)

Current information (Y/N): Y

RCS size: SMALL

Orbital parameters

Period: 100.7 minutes

Inclination: 88.6775 deg

SMA: 7169.922 km

Apoapsis: 804.591 km

Periapsis: 778.984 km

RAAN: 284.8409 deg

Eccentricy: 0.00178577

Argument of periapsis: 188.412 deg

Mean anomaly: 171.6779 deg

Mean motion: 14.29983654 rev/day

Mean motion (dot): 0.00005567 rev/day2

B* drag term: 0.002149722 1/REarth

Two-line elements (TLE)

Creation date: Oct. 18, 2025, 2:17 a.m.

Reference frame: TEME

Reference center: EARTH

Epoch: Oct. 17, 2025, 11:27 p.m. UTC

TLE line 0: 0 CZ-6A DEB

TLE line 1: 1 61390U 24140XF 25290.97717590 .00005567 00000-0 21497-2 0 9991

TLE line 2: 2 61390 88.6775 284.8409 0017858 188.4120 171.6779 14.29983654 58237

Live tracking on map

Real-time ground track for satellite CZ-6A DEB.

In-orbit conjunctions

A list of the most updated potential collisions computed for object CZ-6A DEB.

Target Orbit TCA Probability of collision Miss distance Type
FENGYUN 1C DEB SSO 2025-06-11 23:17:24 0.000454405 93.0 (m) DEBRIS
CZ-6A DEB SSO 2025-06-01 07:03:26 0.000734684 22.0 (m) DEBRIS
FENGYUN 1C DEB SSO 2025-04-14 14:16:59 0.0001481543 122.0 (m) DEBRIS
FENGYUN 1C DEB SSO 2025-02-14 16:20:54 0.0001256106 772.0 (m) DEBRIS
NOAA 16 DEB SSO 2025-01-09 14:39:13 0.0001083602 543.0 (m) DEBRIS

Associated space launch

18 Low Earth Orbit communication satellites with Ku, Q and V band payloads for the G60 constellation operated by Shanghai Spacecom Satellite Technology (SSST) with funding backed by the Shanghai local government. Initial constellation will consist of 1296 satellites by 2027 with long term plans to expand it to 12000 satellites.

CZ-6A DEB was lifted into orbit during the mission ‘Long March 6A | G60 Polar Group 01’, on board a Long March 6A space rocket.

The launch took place on Aug. 6, 2024, 6:42 a.m. from Launch Complex 9A.

For more information about the launch, click the button.

Launch to space Long March 6A | G60 Polar Group 01
Long March 6A | G60 Polar Group 01

Agency: N/A

Status: Launch Successful

Launch date: Aug. 6, 2024, 6:42 a.m. UTC

Rocket: Long March 6A

Launch pad: Launch Complex 9A

Location: Taiyuan Satellite Launch Center, People's Republic of China

...

Latest news about this satellite

News about space launch
Brightness of first Chinese broadband constellation satellites alarms astronomers

The first satellites of a Chinese broadband constellation are significantly brighter than those of Western systems, posing a new challenge for astronomers.

News about space launch
Chinese rocket stage breaks up into cloud of more than 700 pieces of space debris

HELSINKI — A Chinese Long March 6A rocket’s upper stage has fragmented into a cloud of over 700 pieces of space debris, adding to concerns about long-term orbital safety. China […]

News about space launch
China's Thousand Sails Megaconstellation Kicks Off with Dangerous Debris Field

China's Thousand Sails Megaconstellation Kicks Off with Dangerous Debris Field


Newsletter sign-up

Weekly statistics, charts and insights to help you stay on top of the space industry.